CW9161 Weather Reports


Display with metric or nautical units.
time (UTC)temp
F
wind
direction
speed
MPH
gust
MPH
rain 1hr
in
rain 24hr
in
rain mn
in
humidity
%
barometer
mb
20260505022506 69 332 0.0 0.0 0.00 0.00 0.00 54 1011.1
20260505022012 69 332 0.0 2.0 0.00 0.00 0.00 53 1011.0
20260505021521 69 332 0.0 2.0 0.00 0.00 0.00 52 1011.0
20260505021008 69 332 0.0 2.0 0.00 0.00 0.00 51 1010.9
20260505020502 70 332 0.0 2.0 0.00 0.00 0.00 50 1011.0
20260505020008 70 332 0.0 1.0 0.00 0.00 0.00 50 1011.0
20260505015503 70 335 0.0 2.0 0.00 0.00 0.00 50 1011.1
20260505015006 70 334 0.0 2.0 0.00 0.00 0.00 49 1011.1
20260505014522 71 330 1.0 1.0 0.00 0.00 0.00 49 1011.0
20260505014008 70 346 0.0 1.0 0.00 0.00 0.00 48 1011.0
20260505013510 71 346 0.0 1.0 0.00 0.00 0.00 47 1010.9
20260505013026 71 346 0.0 2.0 0.00 0.00 0.00 47 1010.9
20260505012510 71 338 1.0 2.0 0.00 0.00 0.00 47 1011.0
20260505012011 71 15 0.0 2.0 0.00 0.00 0.00 47 1011.0
20260505011530 71 9 0.0 3.0 0.00 0.00 0.00 45 1011.1
20260505011009 71 5 1.0 3.0 0.00 0.00 0.00 45 1011.1
20260505010509 72 279 0.0 2.0 0.00 0.00 0.00 45 1011.1
20260505010022 72 279 0.0 2.0 0.00 0.00 0.00 44 1011.1
20260505005503 73 278 0.0 2.0 0.00 0.00 0.00 42 1011.1
20260505005003 73 26 0.0 2.0 0.00 0.00 0.00 41 1011.1
20260505004509 73 299 0.0 2.0 0.00 0.00 0.00 41 1011.2
20260505004006 73 299 0.0 2.0 0.00 0.00 0.00 40 1011.2
20260505003506 73 299 0.0 1.0 0.00 0.00 0.00 41 1011.2
20260505003018 73 299 0.0 2.0 0.00 0.00 0.00 39 1011.2
20260505002509 74 299 0.0 2.0 0.00 0.00 0.00 39 1011.1
20260505002009 74 302 0.0 2.0 0.00 0.00 0.00 39 1011.1
20260505001520 73 243 1.0 3.0 0.00 0.00 0.00 38 1011.2
20260505001008 74 283 1.0 3.0 0.00 0.00 0.00 37 1011.2
20260505000510 74 278 1.0 2.0 0.00 0.00 0.00 37 1011.2
20260505000029 74 256 1.0 2.0 0.00 0.00 0.00 37 1011.3
20260504235509 74 289 0.0 2.0 0.00 0.00 0.00 38 1011.4
20260504235012 75 335 0.0 2.0 0.00 0.00 0.00 39 1011.5
20260504234508 75 352 0.0 2.0 0.00 0.00 0.00 38 1011.5
20260504234007 74 5 0.0 2.0 0.00 0.00 0.00 37 1011.5
20260504233505 74 190 0.0 2.0 0.00 0.00 0.00 37 1011.6
20260504233017 74 252 0.0 3.0 0.00 0.00 0.00 41 1011.5
20260504232512 74 303 0.0 3.0 0.00 0.00 0.00 37 1011.5
20260504232007 74 329 1.0 2.0 0.00 0.00 0.00 41 1011.4
20260504231519 74 238 0.0 2.0 0.00 0.00 0.00 41 1011.4
20260504231009 74 201 0.0 2.0 0.00 0.00 0.00 40 1011.4
20260504230509 74 247 0.0 3.0 0.00 0.00 0.00 43 1011.3
20260504230020 75 254 1.0 3.0 0.00 0.00 0.00 42 1011.4
20260504225507 74 298 1.0 3.0 0.00 0.00 0.00 39 1011.5
20260504225011 74 270 1.0 3.0 0.00 0.00 0.00 38 1011.5
20260504224526 74 292 1.0 4.0 0.00 0.00 0.00 40 1011.6
20260504224010 73 325 0.0 4.0 0.00 0.00 0.00 39 1011.6
20260504223504 73 286 2.0 4.0 0.00 0.00 0.00 38 1011.7
20260504223014 72 156 1.0 3.0 0.00 0.00 0.00 39 1011.7
20260504222512 73 311 1.0 3.0 0.00 0.00 0.00 41 1011.8
20260504222009 72 238 1.0 3.0 0.00 0.00 0.00 38 1011.7
20260504221521 73 262 1.0 3.0 0.00 0.00 0.00 41 1011.8
20260504221008 73 256 1.0 3.0 0.00 0.00 0.00 39 1011.9
20260504220508 73 281 1.0 3.0 0.00 0.00 0.00 39 1011.9
20260504220020 72 256 1.0 3.0 0.00 0.00 0.00 42 1011.9
20260504215510 72 240 1.0 3.0 0.00 0.00 0.00 40 1012.0
20260504215005 72 296 1.0 3.0 0.00 0.00 0.00 42 1012.0
20260504214505 73 234 1.0 6.0 0.00 0.00 0.00 41 1012.0
20260504214005 73 246 1.0 6.0 0.00 0.00 0.00 40 1012.0
20260504213506 74 305 1.0 4.0 0.00 0.00 0.00 42 1012.1
20260504213020 74 302 1.0 2.0 0.00 0.00 0.00 43 1012.1
20260504212504 74 320 1.0 3.0 0.00 0.00 0.00 43 1012.0
20260504212003 73 241 1.0 3.0 0.00 0.00 0.00 42 1012.1
20260504211529 73 250 1.0 3.0 0.00 0.00 0.00 42 1012.1
20260504211007 73 253 2.0 3.0 0.00 0.00 0.00 42 1012.1
20260504210508 73 289 1.0 3.0 0.00 0.00 0.00 41 1012.1
20260504210020 73 292 2.0 3.0 0.00 0.00 0.00 42 1012.3
20260504205508 71 288 1.0 4.0 0.00 0.00 0.00 42 1012.2
20260504205007 72 255 1.0 6.0 0.00 0.00 0.00 44 1012.3
20260504204524 72 281 1.0 6.0 0.00 0.00 0.00 46 1012.4
20260504204004 72 269 3.0 4.0 0.00 0.00 0.00 44 1012.4
20260504203506 72 273 2.0 4.0 0.00 0.00 0.00 44 1012.4
20260504203008 72 255 1.0 3.0 0.00 0.00 0.00 44 1012.3
20260504202506 72 240 0.0 2.0 0.00 0.00 0.00 49 1012.3
20260504202006 72 219 1.0 3.0 0.00 0.00 0.00 45 1012.2
20260504201511 72 253 2.0 3.0 0.00 0.00 0.00 48 1012.3
20260504201006 71 271 2.0 3.0 0.00 0.00 0.00 46 1012.3
20260504200507 71 237 1.0 3.0 0.00 0.00 0.00 47 1012.4
20260504200021 71 298 2.0 3.0 0.00 0.00 0.00 45 1012.5
20260504195509 71 269 1.0 3.0 0.00 0.00 0.00 45 1012.5
20260504195007 71 217 1.0 3.0 0.00 0.00 0.00 45 1012.5
20260504194524 72 274 2.0 3.0 0.00 0.00 0.00 44 1012.5
20260504194010 72 290 1.0 3.0 0.00 0.00 0.00 43 1012.5
20260504193509 73 218 0.0 3.0 0.00 0.00 0.00 45 1012.5
20260504193007 71 307 0.0 3.0 0.00 0.00 0.00 46 1012.4
20260504192507 71 321 2.0 3.0 0.00 0.00 0.00 45 1012.6
20260504192006 71 273 2.0 3.0 0.00 0.00 0.00 46 1012.6
20260504191512 71 293 2.0 3.0 0.00 0.00 0.00 45 1012.7
20260504191007 71 315 1.0 3.0 0.00 0.00 0.00 46 1012.6
20260504190507 71 240 0.0 3.0 0.00 0.00 0.00 48 1012.5
20260504190018 70 313 1.0 6.0 0.00 0.00 0.00 48 1012.6
20260504185507 70 296 2.0 6.0 0.00 0.00 0.00 48 1012.6
20260504185007 71 123 2.0 4.0 0.00 0.00 0.00 50 1012.5
20260504184535 70 105 1.0 4.0 0.00 0.00 0.00 47 1012.6
20260504183512 70 267 0.0 4.0 0.00 0.00 0.00 52 1012.7
20260504183024 70 182 0.0 3.0 0.00 0.00 0.00 48 1012.8
20260504182510 70 290 1.0 3.0 0.00 0.00 0.00 48 1012.8
20260504182006 70 168 0.0 3.0 0.00 0.00 0.00 49 1012.8
20260504181510 69 263 1.0 4.0 0.00 0.00 0.00 49 1012.8
20260504181006 69 300 2.0 4.0 0.00 0.00 0.00 46 1012.8
20260504180507 69 260 1.0 3.0 0.00 0.00 0.00 47 1012.7
20260504180016 69 234 2.0 3.0 0.00 0.00 0.00 48 1012.7
20260504175507 69 311 1.0 4.0 0.00 0.00 0.00 48 1012.8
20260504175009 68 288 1.0 5.0 0.00 0.00 0.00 49 1012.8
20260504174520 68 166 1.0 5.0 0.00 0.00 0.00 49 1012.7
20260504174011 68 274 1.0 2.0 0.00 0.00 0.00 51 1012.6
20260504173022 68 272 2.0 3.0 0.00 0.00 0.00 52 1012.5
20260504172508 67 271 1.0 2.0 0.00 0.00 0.00 48 1012.5
20260504172008 67 159 1.0 3.0 0.00 0.00 0.00 52 1012.5
20260504171508 66 268 0.0 3.0 0.00 0.00 0.00 50 1012.5
20260504171006 66 189 2.0 3.0 0.00 0.00 0.00 51 1012.5
20260504170506 66 195 1.0 2.0 0.00 0.00 0.00 51 1012.5
20260504151009 61 157 1.0 2.0 0.00 0.00 0.00 54 1011.5
20260504150514 61 153 1.0 3.0 0.00 0.00 0.00 53 1011.5
20260504141013 60 82 0.0 0.0 0.00 0.00 0.00 55 1011.1
20260504140514 60 82 0.0 0.0 0.00 0.00 0.00 55 1011.1
20260504130505 62 82 0.0 0.0 0.00 0.00 0.00 48 1010.7
20260504110508 64 82 0.0 0.0 0.00 0.00 0.00 40 1010.7
20260504100506 63 36 1.0 1.0 0.00 0.00 0.00 45 1010.5
20260504082002 64 49 0.0 2.0 0.00 0.00 0.00 40 1010.4
20260504081513 65 34 0.0 2.0 0.00 0.00 0.00 43 1010.5
20260504081004 64 40 1.0 2.0 0.00 0.00 0.00 43 1010.6
20260504080509 64 40 1.0 2.0 0.00 0.00 0.00 44 1010.6
20260504050509 67 76 3.0 8.0 0.00 0.00 0.00 53 1010.9
20260504045505 67 53 4.0 6.0 0.00 0.00 0.00 53 1010.9
20260504045004 67 55 3.0 6.0 0.00 0.00 0.00 54 1011.0
20260504044516 67 55 3.0 5.0 0.00 0.00 0.00 54 1010.9
20260504044009 68 52 3.0 6.0 0.00 0.00 0.00 54 1011.0
20260504043509 68 45 4.0 6.0 0.00 0.00 0.00 53 1011.0
20260504043020 68 59 4.0 6.0 0.00 0.00 0.00 53 1011.0
20260504042508 68 55 3.0 5.0 0.00 0.00 0.00 53 1010.9
20260504042008 68 43 3.0 5.0 0.00 0.00 0.00 53 1010.8
20260504041532 68 35 3.0 5.0 0.00 0.00 0.00 52 1010.9
20260504041012 68 64 3.0 5.0 0.00 0.00 0.00 53 1011.0
20260504040504 68 53 3.0 5.0 0.00 0.00 0.00 52 1010.9
20260504040004 68 39 3.0 4.0 0.00 0.00 0.00 53 1010.8
20260504035504 68 51 3.0 4.0 0.00 0.00 0.00 53 1010.7
20260504035004 69 37 2.0 4.0 0.00 0.00 0.00 51 1010.8
20260504034508 69 39 3.0 5.0 0.00 0.00 0.00 52 1010.8
20260504034004 68 40 2.0 5.0 0.00 0.00 0.00 52 1010.8
20260504033504 69 41 2.0 4.0 0.00 0.00 0.00 52 1010.8
20260504033003 69 57 2.0 4.0 0.00 0.00 0.00 51 1010.8
20260504032504 69 54 2.0 4.0 0.00 0.00 0.00 51 1010.9
20260504032004 70 46 2.0 4.0 0.00 0.00 0.00 50 1010.8
20260504031506 70 42 2.0 3.0 0.00 0.00 0.00 49 1010.8
20260504031003 70 49 2.0 3.0 0.00 0.00 0.00 48 1010.9
20260504030503 71 62 1.0 3.0 0.00 0.00 0.00 48 1010.8
20260504030006 71 36 1.0 2.0 0.00 0.00 0.00 47 1010.8
20260504025503 71 59 1.0 2.0 0.00 0.00 0.00 47 1010.8
20260504025004 72 30 0.0 4.0 0.00 0.00 0.00 46 1010.7
20260504024505 72 38 1.0 4.0 0.00 0.00 0.00 45 1010.7
20260504024004 72 10 0.0 2.0 0.00 0.00 0.00 45 1010.6
20260504023502 72 5 0.0 2.0 0.00 0.00 0.00 45 1010.7
20260504023004 73 329 0.0 2.0 0.00 0.00 0.00 44 1010.7